マスター彗星

C/2016 N4 ( MASTER )

English version
Home page
Updated on August 6, 2019

---------------------------------------------------------------------

・ プロフィール

発見日 2016年7月15日
発見光度 16.8等
発見者 Mobile Astronomical System of the Telescope-Robots (MASTER)

・ 写真集

・ 軌道要素

Epoch 2017 Sept. 4.0 TT = JDT 2458000.5
T 2017 Sept. 16.59593 TT                                MPCW
q   3.1991203            (2000.0)            P               Q
z  +0.0001882      Peri.   55.95502     +0.58263554     -0.80665649
 +/-0.0000003      Node   354.03137     -0.14120899     +0.01973024
e   0.9993981      Incl.   72.55727     +0.80037231     +0.59069114
From 1908 observations 2015 Sept. 11-2019 May 11, mean residual 0".5.

・ 星図

・ 光度変化

        m1 = 8.5 + 5 logΔ + 7.5 log r

---------------------------------------------------------------------

軌道要素はM.P.E.C. 2019-J142に掲載されたものです。
星図はステラナビゲータ Ver.10 (アストロアーツ) で作成したものです。
光度グラフはComet for Windowsで作成したものです。

---------------------------------------------------------------------

Copyright(C) Seiichi Yoshida (comet@aerith.net). All rights reserved.